Weather Roundup
Issued by NWS

Home | Current Version | Previous Version | Graphics & Text | Print | Product List | Glossary Off
Versions: 1 2 3 4 5 6 7 8 9 10 11 12 13 14 15 16 17 18 19 20 21 22 23 24 25 26 27 28 29 30 31 32 33 34 35 36 37 38 39 40 41 42 43 44 45 46 47 48 49 50

000
NZUS93 KARX 300459
HRRWXR

CURRENT HOURLY OBSERVATIONS ACROSS
MUCH OF THE UPPER MISSISSIPPI VALLEY
NATIONAL WEATHER SERVICE LA CROSSE WI
1200 AM CDT TUE JUN 30 2015


...SOUTHEAST MINNESOTA...


CITY           SKY/WX    TMP DP  RH WIND       PRES   REMARKS
ROCHESTER      CLEAR     60  58  92 W3        29.85R
ROCHESTER/MAYO FAIR      61  61 100 CALM      29.85R
WINONA         CLEAR     61  59  94 CALM      29.84R FOG
AUSTIN         CLEAR     61  57  88 SW6       29.85R
ALBERT LEA     CLEAR     64  59  82 CALM      29.85S
DODGE CENTER   CLEAR     63  59  88 SW8       29.84S
PRESTON        CLEAR     58  56  94 CALM      29.85R FOG
OWATONNA       CLEAR     64  57  77 SE7       29.84R
FARIBAULT      CLEAR     63  59  88 CALM      29.84S
$$

...ELSEWHERE IN MINNESOTA...


CITY           SKY/WX    TMP DP  RH WIND       PRES   REMARKS
MINNEAPOLIS    PTCLDY    66  63  90 CALM      29.84R
INTNL FALLS    CLEAR     62  53  72 NE9       29.93R
DULUTH         MOCLDY    63  57  81 N7        29.86S
RED WING       CLEAR     59  57  94 CALM      29.83R FOG
REDWOOD FALLS  CLEAR     69  64  84 NW9       29.87S
MANKATO        CLEAR     68  63  83 NW7       29.84S
WORTHINGTON    MOCLDY    64  57  77 NW7       29.92R
FAIRMONT       CLEAR     68  59  73 NW9       29.87R
$$

...SOUTHWEST WISCONSIN...


CITY           SKY/WX    TMP DP  RH WIND       PRES   REMARKS
LA CROSSE      CLEAR     61  58  90 CALM      29.83R
PRAIRIE DU CHI CLOUDY    62  61  96 CALM      29.81S
BOSCOBEL       CLOUDY    62  60  93 CALM      29.82S FOG
LONE ROCK      CLOUDY    61  60  97 CALM      29.81S FOG
PLATTEVILLE    CLOUDY    63  62  97 W5        29.82F
FORT MC COY      N/A     56  55  97 CALM      29.83S FOG
CAMP DOUGLAS   FOG       54  54 100 W7        29.81S VSB 1/2
VIROQUA        FAIR      60  60 100 W5        29.83S
WIS DELLS      MOCLDY    59  57  94 W5        29.81R FOG
$$

...ELSEWHERE IN WISCONSIN...


CITY           SKY/WX    TMP DP  RH WIND       PRES   REMARKS
MILWAUKEE      MOCLDY    62  60  93 S7        29.77F
MADISON        CLOUDY    62  59  90 NW3       29.78F
GREEN BAY      CLOUDY    65  63  93 CALM      29.76S
EAU CLAIRE     PTCLDY    57  55  93 SW3       29.83R FOG
BLACK RVR FLS  FOG       55  55 100 CALM      29.82R VSB 1/4
MEDFORD        CLOUDY    57  57 100 W3        29.82S FOG
WAUSAU         CLEAR     60  58  92 NW3       29.79S
WIS RAPIDS     CLEAR     59  56  89 NW5       29.82S
MARSHFIELD     CLEAR     58  55  90 NW5       29.81S FOG
RICE LAKE      PTCLDY    58  57  94 CALM      29.86R FOG
$$

...NORTHEAST IOWA...


CITY           SKY/WX    TMP DP  RH WIND       PRES   REMARKS
DECORAH          N/A    N/A N/A N/A MISG        N/A
MASON CITY     CLEAR     63  58  83 S6        29.87F
CHARLES CITY   PTCLDY    63  63 100 S6        29.85S
OELWEIN        MOCLDY    63  61  94 CALM      29.85S
$$

...ELSEWHERE IN IOWA...


CITY           SKY/WX    TMP DP  RH WIND       PRES   REMARKS
DES MOINES     CLOUDY    71  63  75 W3        29.87F
IOWA CITY      MOCLDY    66  64  93 NE12      29.87R
FORT DODGE     CLEAR     66  61  82 CALM      29.88S
$$

...NORTHERN ILLINOIS...


CITY           SKY/WX    TMP DP  RH WIND       PRES   REMARKS
CHICAGO-OHARE  MOCLDY    64  63  96 S5        29.78F
CHICAGO-MIDWAY PTCLDY    68  65  90 S6        29.79S
MOLINE         CLOUDY    67  64  90 CALM      29.83F
ROCKFORD       LGT RAIN  66  62  87 CALM      29.80F
PEORIA         TSTM      70  63  78 N6G16     29.84R
$$

NOTE: "FAIR" INDICATES FEW OR NO CLOUDS BELOW 12,000 FEET WITH NO
SIGNIFICANT WEATHER AND/OR OBSTRUCTIONS TO VISIBILITY. WIND
SPEEDS ARE IN MILES-PER-HOUR.



USA.gov is the U.S. government's official web portal to all federal, state and local government web resources and services.